TKJ43ER LTAC-LTAI

Flight info

Callsign TKJ43ER
Flight time N/A
Altitude 34000
Route HALIL UW77 HISAR
Aircraft B738/M-SDE2E3FGHIRWXY/LB1

Departure

Time 2026-04-29 14:42
Airport Esenboğa International Airport (LTAC)

Arrival

Time N/A
Airport Antalya International Airport (LTAI)
Time Latitude Longitude Altitude Speed Heading
2026-04-29 14:27 40.13470 32.99471 3130 ft 0 kts 306°
2026-04-29 14:39 40.13471 32.99470 3129 ft 0 kts 306°
2026-04-29 14:39 40.13471 32.99463 3129 ft 0 kts 242°
2026-04-29 14:39 40.13454 32.99458 3130 ft 8 kts 173°
2026-04-29 14:40 40.13352 32.99446 3131 ft 19 kts 155°
2026-04-29 14:40 40.13385 32.99624 3134 ft 37 kts 36°
2026-04-29 14:40 40.13660 32.99883 3138 ft 50 kts 38°
2026-04-29 14:40 40.13882 33.00095 3141 ft 38 kts 36°
2026-04-29 14:41 40.14102 33.00303 3141 ft 38 kts 34°
2026-04-29 14:41 40.14297 33.00495 3142 ft 24 kts 45°
2026-04-29 14:41 40.14250 33.00670 3143 ft 22 kts 158°
2026-04-29 14:41 40.14099 33.00576 3144 ft 41 kts 216°
2026-04-29 14:42 40.13558 33.00053 3145 ft 147 kts 215°
2026-04-29 14:42 40.12452 32.99365 3553 ft 199 kts 167°
2026-04-29 14:42 40.12259 33.00828 3951 ft 223 kts 32°
2026-04-29 14:42 40.13602 33.00583 4642 ft 233 kts 285°
2026-04-29 14:43 40.12543 32.98820 4427 ft 294 kts 208°
2026-04-29 14:43 40.10928 32.97776 6835 ft 256 kts 210°
2026-04-29 14:43 40.09428 32.96505 7677 ft 262 kts 219°
2026-04-29 14:43 40.07994 32.95013 8009 ft 266 kts 221°
2026-04-29 14:44 40.06520 32.93480 8036 ft 266 kts 219°
2026-04-29 14:44 40.05076 32.92051 8040 ft 265 kts 218°
2026-04-29 14:44 40.03554 32.90598 8353 ft 279 kts 217°
2026-04-29 14:44 40.01938 32.89073 8764 ft 289 kts 217°
2026-04-29 14:45 40.00303 32.87483 9185 ft 292 kts 221°
2026-04-29 14:45 39.98979 32.85494 9593 ft 290 kts 244°
2026-04-29 14:45 39.98485 32.82935 10015 ft 287 kts 272°
2026-04-29 14:45 39.98908 32.80434 10423 ft 284 kts 296°
2026-04-29 14:46 39.99978 32.78269 10860 ft 284 kts 311°
2026-04-29 14:46 40.01511 32.76651 11269 ft 284 kts 334°
2026-04-29 14:46 40.03468 32.76086 11696 ft 289 kts 360°